086  
ASUS45 KBOU 200810  
RWRCO  
 
WEATHER ROUNDUP FOR COLORADO  
NATIONAL WEATHER SERVICE DENVER/BOULDER CO  
200 AM MDT SAT OCT 20 2018  
 
NOTE: "FAIR" INDICATES FEW OR NO CLOUDS BELOW 12000 FEET WITH NO  
SIGNIFICANT WEATHER AND/OR S TO VISIBILITY
.  
 
COZ001>005-013-030-031-200900-   
..NORTHWEST COLORADO
 
 
 
CITY SKY/WX TMP DP RH WIND PRES REMARKS
 
CRAIG FAIR 26 24 92 CALM 30.47S  
HAYDEN FAIR 36 29 75 E10 30.48S  
MEEKER FAIR 33 26 75 CALM 30.47S  
RANGELY FAIR 32 31 98 CALM 30.45S  
RABBIT EARS PA FAIR 36 23 60 MISG 30.59S  
STEAMBOAT SPGS FAIR 32 29 88 CALM 30.49S  
WALDEN NOT AVBL  

 
 
COZ006>008-011-200900-   
..WEST CENTRAL VALLEYS
 
 
 
CITY SKY/WX TMP DP RH WIND PRES REMARKS
 
GRAND JUNCTION FAIR 46 38 73 E10 30.39S  
MONTROSE FAIR 41 34 76 SE10 30.46R  
EAGLE FAIR 32 27 81 SE3 30.53R  
RIFLE FAIR 39 32 76 CALM 30.44R  
DELTA FAIR 41 33 74 NE7 30.44S  
NUCLA FAIR 41 32 70 SE7 30.45S  

 
 
COZ017>023-064>068-200900-   
..SOUTHWEST COLORADO
 
 
 
CITY SKY/WX TMP DP RH WIND PRES REMARKS
 
DURANGO FAIR 40 29 64 N5 30.44R  
CORTEZ FAIR 32 28 85 E3 30.40R  
PAGOSA SPRINGS FAIR 33 24 68 NE3 30.49S  
TELLURIDE FAIR 36 21 55 SE6 30.54S  
WOLF CREEK PAS FAIR 30 16 55 CALM 30.68R  

 
 
COZ009-010-012-014-032>034-037-058>063-200900-   
..CENTRAL COLORADO
 
 
 
CITY SKY/WX TMP DP RH WIND PRES REMARKS
 
ASPEN FAIR 33 26 75 S6 30.50S WCI 28  
BUENA VISTA FAIR 32 23 68 N7 30.54S WCI 26  
COPPER MTN FAIR 34 19 55 S3 30.64S  
BERTHOUD PASS FAIR 27 10 50 NW16 30.65R WCI 14  
COTTONWOOD PAS FAIR 37 18 44 W7 30.58S  
GUNNISON FAIR 26 18 71 SE3 30.53R  
GRANBY FAIR 28 24 84 CALM 30.56R  
KREMMLING FAIR 27 23 86 CALM 30.54S  
LEADVILLE FAIR 24 17 74 CALM 30.58S  
MONARCH PASS FAIR 28 16 59 E3 30.74S  
SALIDA FAIR 36 23 59 CALM 30.61S  
SUNLIGHT FAIR 32 23 69 E6 30.64R WCI 26  
WILKERSON PASS MOCLDY 32 14 47 W7 30.64S WCI 26  

 
 
COZ069>075-200900-   
..SAN LUIS VALLEY/SANGRE DE CRISTO MOUNTAINS
 
 
 
CITY SKY/WX TMP DP RH WIND PRES REMARKS
 
ALAMOSA FAIR 23 15 71 CALM 30.50R  
DEL NORTE FAIR 32 17 55 W14 30.52S WCI 22  
LA VETA PASS NOT AVBL  
SAGUACHE FAIR 32 18 55 CALM 30.52S  

 
 
COZ035-036-038>040-200900-   
..NORTHERN COLORADO FRONT RANGE
 
 
 
CITY SKY/WX TMP DP RH WIND PRES REMARKS
 
DENVER INTL AP FAIR 42 24 49 SW10 30.41S  
AURORA CLEAR 39 23 53 S8 30.42S  
FRONT RANGE AP FAIR 39 28 65 S8 30.42S  
ERIE MUNI ARPT FAIR 33 31 91 S3 30.46S  
BOULDER MUN AP FAIR 45 27 49 W5 30.41S  
CENTENNIAL FAIR 38 25 59 S7 30.43R  
BROOMFIELD FAIR 45 27 49 NW3 30.42S  
FORT COLLINS FAIR 42 30 62 N5 30.41S  
LONGMONT FAIR 43 30 60 W7 30.42S  

 
 
COZ041-046-047-076>085-087-088-200900-   
..PIKES PEAK/PALMER DIVIDE AND SOUTHERN FOOTHILLS
 
 
 
CITY SKY/WX TMP DP RH WIND PRES REMARKS
 
COLO. SPRINGS FAIR 43 21 41 CALM 30.47S  
A. F. ACADEMY FAIR 29 20 69 N10 30.47S WCI 20  
SCHRIEVER AFB NOT AVBL  
CHEYENNE MTN FAIR 44 19 37 CALM 30.42S  
ELLICOTT N/A N/A N/A N/A CALM 30.46S  
FALCON FAIR 36 19 49 W6 30.49S  
FORT CARSON FAIR 44 23 43 CALM 30.45S  
LIMON FAIR 30 26 85 N3 30.43S  
MONUMENT HILL FAIR 34 21 60 S9 30.48S WCI 26  
CANON CITY NOT AVBL  
WALSENBURG NOT AVBL  
TRINIDAD FAIR 37 26 64 W9 30.45S  

 
 
COZ042>045-048>051-090-091-200900-   
..NORTHEAST COLORADO
 
 
 
CITY SKY/WX TMP DP RH WIND PRES REMARKS
 
GREELEY ARPT FAIR 32 28 85 NW5 30.41S WCI 27  
AKRON FAIR 42 29 59 SW13 30.38S  
BURLINGTON FAIR 34 29 82 W7 30.38S WCI 28  
WRAY FAIR 34 30 86 W7 30.37R WCI 28  
YUMA FAIR 34 30 86 W8 30.37R WCI 27  
STERLING FAIR 32 30 93 SW3 30.38R  
HOLYOKE FAIR 36 30 80 NW5 30.37R  
FORT MORGAN N/A 35 25 66 W10 30.39F WCI 28  

 
 
COZ086-089-092>099-200900-   
..SOUTHEAST COLORADO
 
 
 
CITY SKY/WX TMP DP RH WIND PRES REMARKS
 
PUEBLO FAIR 37 26 64 CALM 30.43S  
LA JUNTA FAIR 40 31 70 W10 30.41R  
LAMAR FAIR 32 29 88 SW7 30.38R WCI 26  
SPRINGFIELD NOT AVBL  

 
 
 
CLICK HERE TO GO TO PREVIOUS BULLETINS.

The Nexlab CO Page Main Text Page